Location: Unspecified
(29.9680°N, 0.0000°E)
Time: 18:34:25
(UTC+00:00)

A-11 Canister half - Pass Details

Date: 24 June 2019
Orbit: 1526 x 1682 km, 47.3° (Epoch: 24 August)

Event Time Altitude Azimuth Distance (km) Brightness Sun altitude
Rises 04:01:01 0° 248° (WSW) 4,784 - -11.7°
Reaches altitude 10° 04:04:16 10° 253° (WSW) 3,779 - -11.1°
Exits shadow 04:04:30 11° 253° (WSW) 3,707 10.4 -11.1°
Maximum altitude 04:13:31 53° 328° (NNW) 1,843 9.5 -9.5°
Drops below altitude 10° 04:22:36 10° 44° (NE) 3,700 12.6 -7.9°
Sets 04:25:46 0° 50° (NE) 4,679 13.8 -7.3°
